�������ċp�F�����K�X���j�^�v���󋵏��
Date,Time,�ċp�F�����K�X���j�^(cps),����,����(m/s)
2023/04/18,00:00,1.5,�k��,0.7
2023/04/18,00:10,1.5,�k�k��,0.9
2023/04/18,00:20,1.5,�k�k��,0.9
2023/04/18,00:30,1.5,�k��,0.8
2023/04/18,00:40,1.5,�k,0.9
2023/04/18,00:50,1.5,-,CALM
2023/04/18,01:00,1.5,�k��,0.6
2023/04/18,01:10,1.5,-,CALM
2023/04/18,01:20,1.5,���k��,1.0
2023/04/18,01:30,1.5,�k�k��,0.9
2023/04/18,01:40,1.5,�k,1.4
2023/04/18,01:50,1.5,�k,1.4
2023/04/18,02:00,1.5,�k�k��,0.8
2023/04/18,02:10,1.5,�k,1.7
2023/04/18,02:20,1.6,�k�k��,1.2
2023/04/18,02:30,1.4,�k,1.3
2023/04/18,02:40,1.5,�k,1.6
2023/04/18,02:50,1.5,�k,1.6
2023/04/18,03:00,1.5,�k,1.2
2023/04/18,03:10,1.4,�k,1.7
2023/04/18,03:20,1.5,�k�k��,1.3
2023/04/18,03:30,1.4,�k�k��,0.5
2023/04/18,03:40,1.5,-,CALM
2023/04/18,03:50,1.5,�k,0.7
2023/04/18,04:00,1.4,���쐼,0.7
2023/04/18,04:10,1.4,��,0.5
2023/04/18,04:20,1.5,���쐼,0.7
2023/04/18,04:30,1.5,���쐼,0.6
2023/04/18,04:40,1.6,-,CALM
2023/04/18,04:50,1.5,-,CALM
2023/04/18,05:00,1.4,-,CALM
2023/04/18,05:10,1.5,���k��,0.6
2023/04/18,05:20,1.5,��,0.6
2023/04/18,05:30,1.4,��,0.5
2023/04/18,05:40,1.4,-,CALM
2023/04/18,05:50,1.4,-,CALM
2023/04/18,06:00,1.6,-,CALM
2023/04/18,06:10,1.5,-,CALM
2023/04/18,06:20,1.4,-,CALM
2023/04/18,06:30,1.5,��,0.6
2023/04/18,06:40,1.6,��,0.8
2023/04/18,06:50,1.4,���k��,1.3
2023/04/18,07:00,1.5,���k��,0.8
2023/04/18,07:10,1.6,��,0.7
2023/04/18,07:20,1.5,��,0.6
2023/04/18,07:30,1.5,���k��,0.8
2023/04/18,07:40,1.5,���k��,1.0
2023/04/18,07:50,1.5,���k��,1.0
2023/04/18,08:00,1.4,�k��,1.3
2023/04/18,08:10,1.5,�k��,1.9
2023/04/18,08:20,1.4,�k��,1.9
2023/04/18,08:30,1.5,�k��,2.5
2023/04/18,08:40,1.5,�k�k��,1.6
2023/04/18,08:50,1.6,�k��,2.1
2023/04/18,09:00,1.5,�k��,2.0
2023/04/18,09:10,1.4,�k��,1.1
2023/04/18,09:20,1.4,-,CALM
2023/04/18,09:30,1.4,���k��,2.6
2023/04/18,09:40,1.5,��,2.3
2023/04/18,09:50,1.6,�쓌,3.1
2023/04/18,10:00,1.5,�쓌,3.0
2023/04/18,10:10,1.5,�쓌,3.3
2023/04/18,10:20,1.5,�쓌,3.3
2023/04/18,10:30,1.5,�쓌,3.0
2023/04/18,10:40,1.5,�쓌,3.4
2023/04/18,10:50,1.5,�쓌,3.4
2023/04/18,11:00,1.4,�쓌,3.3
2023/04/18,11:10,1.6,�쓌,3.4
2023/04/18,11:20,1.5,���쓌,3.6
2023/04/18,11:30,1.5,�쓌,2.7
2023/04/18,11:40,1.5,��쓌,3.9
2023/04/18,11:50,1.5,��쓌,5.0
2023/04/18,12:00,1.6,��쓌,4.7
2023/04/18,12:10,1.5,��쓌,5.2
2023/04/18,12:20,1.5,��쓌,4.3
2023/04/18,12:30,1.4,��쓌,5.3
2023/04/18,12:40,1.5,��쓌,5.4
2023/04/18,12:50,1.4,��쓌,4.5
2023/04/18,13:00,1.5,��쓌,4.3
2023/04/18,13:10,1.5,��쓌,4.7
2023/04/18,13:20,1.4,��,5.5
2023/04/18,13:30,1.4,��쓌,6.5
2023/04/18,13:40,1.5,��쓌,5.8
2023/04/18,13:50,1.4,��쓌,7.3
2023/04/18,14:00,1.5,��쓌,6.9
2023/04/18,14:10,1.5,��쓌,7.0
2023/04/18,14:20,1.4,��쓌,6.7
2023/04/18,14:30,1.6,��,5.8
2023/04/18,14:40,1.6,��,6.7
2023/04/18,14:50,1.5,��쐼,5.8
2023/04/18,15:00,1.4,��쐼,5.5
2023/04/18,15:10,1.5,��쐼,4.9
2023/04/18,15:20,1.5,��쐼,4.3
2023/04/18,15:30,1.5,��,3.4
2023/04/18,15:40,1.5,��쓌,4.0
2023/04/18,15:50,1.5,��쓌,3.7
2023/04/18,16:00,1.5,��쓌,3.4
2023/04/18,16:10,1.4,��쓌,4.0
2023/04/18,16:20,1.5,��쓌,3.6
2023/04/18,16:30,1.5,��쓌,4.1
2023/04/18,16:40,1.5,��,3.7
2023/04/18,16:50,1.5,��,3.6
2023/04/18,17:00,1.5,��,3.6
2023/04/18,17:10,1.5,��,3.3
2023/04/18,17:20,1.5,��,3.1
2023/04/18,17:30,1.5,��,2.5
2023/04/18,17:40,1.5,��,2.7
2023/04/18,17:50,1.5,��,2.2
2023/04/18,18:00,1.5,��,1.5
2023/04/18,18:10,1.5,��,0.8
2023/04/18,18:20,1.5,��쓌,0.6
2023/04/18,18:30,1.5,-,CALM
2023/04/18,18:40,1.5,-,CALM
2023/04/18,18:50,1.5,-,CALM
2023/04/18,19:00,1.4,�쓌,1.4
2023/04/18,19:10,1.5,�쓌,1.3
2023/04/18,19:20,1.5,��쐼,0.8
2023/04/18,19:30,1.5,��,1.2
2023/04/18,19:40,1.5,�쐼,0.7
2023/04/18,19:50,1.5,��쐼,0.9
2023/04/18,20:00,1.6,��,1.3
2023/04/18,20:10,1.5,��,1.4
2023/04/18,20:20,1.5,�쐼,0.6
2023/04/18,20:30,1.5,��쐼,1.3
2023/04/18,20:40,1.4,��쐼,1.4
2023/04/18,20:50,1.5,��쐼,1.2
2023/04/18,21:00,1.5,�쐼,0.6
2023/04/18,21:10,1.5,-,CALM
2023/04/18,21:20,1.6,��쐼,1.1
2023/04/18,21:30,1.5,�쐼,0.8
2023/04/18,21:40,1.5,-,CALM
2023/04/18,21:50,1.5,��,0.6
2023/04/18,22:00,1.5,-,CALM
2023/04/18,22:10,1.5,���k��,1.0
2023/04/18,22:20,1.6,-,CALM
2023/04/18,22:30,1.5,-,CALM
2023/04/18,22:40,1.6,-,CALM
2023/04/18,22:50,1.5,�k�k��,0.5
2023/04/18,23:00,1.5,-,CALM
2023/04/18,23:10,1.4,�k�k��,0.7
2023/04/18,23:20,1.5,�k,0.9
2023/04/18,23:30,1.5,�k,0.9
2023/04/18,23:40,1.5,�k�k��,0.5
2023/04/18,23:50,1.5,�k�k��,0.5
